Location: Acts Church of Fort Worth
(32.6786°N, 97.2668°W)
Time: 09:26:50
(UTC+00:00)

Cosmos 1862 Rocket - Pass Details

Date: 18 January 2026
Orbit: 596 x 627 km, 82.5° (Epoch: 9 February)

Event Time Altitude Azimuth Distance (km) Brightness Sun altitude
Rises 00:41:40 0° 162° (SSE) 2,897 7.0 -11.4°
Reaches altitude 10° 00:44:05 10° 152° (SSE) 1,993 6.1 -11.9°
Maximum altitude 00:47:57 30° 91° (E) 1,114 4.3 -12.7°
Enters shadow 00:51:26 12° 32° (NNE) 1,859 5.6 -13.4°
